[[{"header":{"parameterUnit":"m.s-1","parameterCategory":1,"la1":30.2991,"la2":30.254,"lo1":-89.0895,"lo2":-89.0444,"dy":0.0017,"dx":0.0017,"nx":28,"ny":28,"refTime":"2024-06-26T09:00:00:Z","depth":0,"parameterNumber":2,"parameterNumberName":"U-component_of_WINDS"},"data":[0,0,0,0,0,0,0,0,0,0,0,0,0,0,0,0,0,0,0,0,0,0,0,0,0,0,0,0,0,0,0,0,0,0,0,0,0,0,0,0,0,0,0,0,0,0,0,0,0,0,0,0,0,0,0,0,0,0,3.5537,3.5538,0,3.5655,3.5656,3.5658,3.5623,3.5621,3.5618,3.5616,3.5739,3.5745,3.575,0,0,0,0,0,0,0,0,0,0,0,0,0,3.5283,3.5288,3.5537,3.5538,3.554,3.5655,3.5656,3.5658,3.5624,3.5621,3.5618,3.5615,3.5738,3.5744,3.5751,0,0,0,0,0,0,0,0,0,0,0,0,0,3.5397,3.529,3.5536,3.5536,3.5537,3.5654,3.5656,3.5658,3.5624,3.5621,3.5617,3.5613,3.5735,3.5743,3.5752,3.5876,0,0,3.5777,3.5781,0,0,0,0,0,0,0,0,3.539,3.5406,3.5535,3.5537,3.5538,3.562,3.5612,3.5732,3.5625,3.5591,3.5616,3.5612,3.5703,3.5714,3.5744,3.5882,3.5888,3.5778,3.5783,3.5787,3.5789,0,0,0,0,0,0,0,3.5383,3.5401,3.5583,3.5537,3.5539,3.5531,3.5543,3.5635,3.5666,3.5594,3.5592,3.5606,3.5703,3.5736,3.5747,3.5889,3.5778,3.5785,3.579,3.5794,3.6135,3.6139,0,0,0,0,0,0,3.5373,3.5394,3.558,3.5587,3.5454,3.5539,3.5552,3.5598,3.5665,3.5672,3.5609,3.5604,3.5724,3.5737,3.5751,3.5899,3.5786,3.5794,3.5799,3.6131,3.6136,3.614,0,0,0,0,0,0,3.5368,3.539,3.5575,3.549,3.5513,3.5547,3.5598,3.5602,3.5635,3.5677,3.5682,3.5637,3.5721,3.5739,3.5845,3.5903,3.5798,3.5806,3.6126,3.6132,3.6138,3.6198,0,0,0,0,0,0,3.5361,3.5388,3.5435,3.5491,3.5518,3.5666,3.5602,3.5607,3.5649,3.5643,3.5704,3.571,3.572,3.5833,3.5853,3.5913,3.5812,3.6121,3.6129,3.6136,3.6191,3.6206,3.6218,0,0,0,0,0,3.5352,3.5449,3.5438,3.5461,3.5577,3.567,3.5685,3.5693,3.5654,3.5701,3.5728,3.5709,3.5894,3.5844,3.5867,3.593,3.6117,3.6126,3.6135,3.6185,3.6203,3.6218,0,0,0,0,0,0,3.5399,3.5456,3.5445,3.5562,3.5611,3.5664,3.5724,3.5712,3.5773,3.5765,3.5774,3.5788,3.5896,3.5924,3.5867,3.6053,3.6,3.6014,3.603,3.6047,3.6061,3.605,3.5819,0,0,0,0,0,3.5423,3.5493,3.5539,3.5639,3.5664,3.569,3.5731,3.5733,3.5784,3.5805,3.5839,3.5891,3.596,3.6006,3.6073,3.6197,3.6208,3.6251,3.6265,3.6276,3.6287,3.6352,3.6371,3.617,3.617,3.617,0,0,3.5473,3.5513,3.5557,3.5649,3.5687,3.5759,3.5708,3.5787,3.584,3.5817,3.5918,3.5946,3.6004,3.6118,3.6171,3.6145,3.6346,3.6287,3.6296,3.6301,3.6364,3.6383,3.64,3.6176,3.6175,3.6174,0,0,3.5601,3.5639,3.5725,3.5764,3.5823,3.584,3.5861,3.5915,3.5932,3.6034,3.6018,3.6083,3.6203,3.6244,3.6281,3.6426,3.6409,3.6448,3.6517,3.6581,3.6597,3.6611,3.666,3.6678,3.646,3.646,3.646,0,3.5656,3.5763,3.5771,3.5851,3.5891,3.5874,3.5961,3.5999,3.6077,3.6106,3.6076,3.6226,3.6264,3.6387,3.6423,3.6454,3.6477,3.6439,3.6594,3.6608,3.6621,3.6668,3.6687,3.6464,3.6463,3.6463,3.6463,0,3.5827,3.5902,3.5964,3.6038,3.6087,3.617,3.6191,3.6239,3.6238,3.6258,3.6361,3.6407,3.6481,3.6512,3.6512,3.6635,3.6617,3.6591,3.6537,3.6644,3.6688,3.6707,3.647,3.6468,3.6467,3.6466,0,0,3.5984,3.6062,3.6085,3.6117,3.6181,3.624,3.6323,3.6395,3.6435,3.6491,3.6559,3.6662,3.6638,3.668,3.6685,3.6742,3.6851,3.6709,3.671,3.6731,3.6987,3.7004,3.7024,3.6842,3.6845,3.6848,3.6981,0,3.6114,3.6258,3.6268,3.6399,3.6467,3.6453,3.6525,3.6573,3.6595,3.6656,3.6681,3.6753,3.6717,3.6742,3.6798,3.6825,3.6902,3.6817,3.6904,3.6907,3.6886,3.7048,3.7066,3.7189,3.6999,3.7002,3.7004,0,3.6285,3.6344,3.6481,3.6534,3.6563,3.6628,3.6694,3.6755,3.6808,3.682,3.6868,3.6865,3.695,3.6896,3.7013,3.6955,3.6992,3.7011,3.7016,3.7022,3.6959,3.7055,3.7229,3.7246,3.7032,3.703,3.7028,0,3.6382,3.6496,3.6592,3.6622,3.6687,3.6733,3.6762,3.6813,3.6855,3.6915,3.6942,3.7012,3.7049,3.7103,3.7119,3.7078,3.7235,3.7182,3.7246,3.7245,3.7276,3.7273,3.7455,3.7307,3.7306,3.7306,3.7306,0,3.6524,3.6608,3.6636,3.6695,3.6788,3.68,3.6893,3.692,3.6965,3.7029,3.7023,3.7083,3.7102,3.7166,3.718,3.7273,3.7291,3.7303,3.7304,3.7301,3.7299,3.7323,3.7313,3.7311,3.731,3.7309,3.7308,0,3.6646,3.6669,3.6773,3.6827,3.6843,3.6909,3.6955,3.7012,3.7034,3.7115,3.7135,3.7169,3.7243,3.7266,3.7357,3.7366,3.7474,3.7471,3.7455,3.7454,3.7516,3.7508,3.7716,3.7743,3.758,3.7581,3.7583,0,3.6734,3.6797,3.6859,3.6901,3.6932,3.7,3.7044,3.7059,3.7104,3.7171,3.7219,3.7294,3.7353,3.7473,3.7506,3.7576,3.7571,3.764,3.7581,3.7575,3.7568,3.7563,3.7568,3.7649,3.7651,3.7652,3.7653,0,3.6885,3.6894,3.6956,3.7023,3.7075,3.7129,3.718,3.7215,3.7238,3.729,3.7366,3.7412,3.7504,3.7577,3.7647,3.7679,3.767,3.7672,3.769,3.7685,3.7672,3.7677,3.7481,3.7666,3.7665,3.7664,3.7663,3.7663,3.6991,3.7046,3.7097,3.7167,3.7208,3.7256,3.7311,3.734,3.7404,3.7479,3.7485,3.7567,3.762,3.7713,3.7748,3.7812,3.7792,3.7819,3.7825,3.7831,3.7834,3.7665,3.7826,3.7826,3.7825,3.7825,3.7825,0,3.7139,3.7171,3.7236,3.7308,3.7363,3.7351,3.7407,3.7454,3.7526,3.7576,3.7634,3.7721,3.7793,3.7832,3.7903,3.7947,3.7944,3.7964,3.7959,3.7966,3.7849,3.7825,3.7965,3.7965,3.7965,3.7965,3.7965,3.7965,3.7222,3.7314,3.7329,3.7442,3.7474,3.7553,3.7587,3.7631,3.7671,3.7768,3.7827,3.7852,3.7898,3.7972,3.8037,3.8046,3.8071,3.8094,3.8101,3.799,3.7975,3.7961,3.7938,3.81,3.81,3.8212,3.8213,3.8214]},{"header":{"parameterUnit":"m.s-1","parameterCategory":1,"la1":30.2991,"la2":30.254,"lo1":-89.0895,"lo2":-89.0444,"dy":0.0017,"dx":0.0017,"nx":28,"ny":28,"refTime":"2024-06-26T09:00:00:Z","depth":0,"parameterNumber":3,"parameterNumberName":"V-component_of_WINDS"},"data":[0,0,0,0,0,0,0,0,0,0,0,0,0,0,0,0,0,0,0,0,0,0,0,0,0,0,0,0,0,0,0,0,0,0,0,0,0,0,0,0,0,0,0,0,0,0,0,0,0,0,0,0,0,0,0,0,0,0,5.1014,5.1016,0,5.1245,5.1247,5.125,5.1263,5.1261,5.1258,5.1255,5.1482,5.149,5.1499,0,0,0,0,0,0,0,0,0,0,0,0,0,5.0576,5.0584,5.1014,5.1017,5.102,5.1244,5.1247,5.125,5.1264,5.126,5.1257,5.1254,5.1479,5.1489,5.1499,0,0,0,0,0,0,0,0,0,0,0,0,0,5.0782,5.0586,5.1013,5.1053,5.1059,5.1243,5.1247,5.1251,5.1264,5.126,5.1256,5.1253,5.1476,5.1488,5.1501,5.1658,0,0,5.154,5.1545,0,0,0,0,0,0,0,0,5.077,5.0798,5.1045,5.1051,5.1058,5.1221,5.1176,5.1387,5.1265,5.1186,5.1255,5.1251,5.1398,5.1417,5.1468,5.1668,5.1678,5.1541,5.1548,5.1554,5.1557,0,0,0,0,0,0,0,5.0756,5.0788,5.1105,5.1048,5.1056,5.1057,5.1082,5.1216,5.1311,5.1193,5.1194,5.1222,5.1401,5.1456,5.1474,5.1681,5.154,5.1552,5.1559,5.1564,5.202,5.2024,0,0,0,0,0,0,5.0735,5.0776,5.1097,5.1112,5.0902,5.1068,5.1096,5.1173,5.1309,5.1327,5.1225,5.1222,5.1436,5.1459,5.1482,5.1674,5.1554,5.1566,5.1573,5.2015,5.2021,5.2026,0,0,0,0,0,0,5.0726,5.0764,5.1088,5.0944,5.0986,5.108,5.1166,5.1179,5.1235,5.1334,5.135,5.1265,5.1434,5.1464,5.1614,5.1681,5.1571,5.1583,5.201,5.2017,5.2023,5.2059,0,0,0,0,0,0,5.0713,5.076,5.0823,5.0946,5.0994,5.122,5.117,5.1187,5.1258,5.1256,5.1376,5.1392,5.1433,5.1595,5.1627,5.1697,5.1593,5.2004,5.2013,5.2021,5.2052,5.2066,5.2078,0,0,0,0,0,5.0697,5.0822,5.0826,5.0865,5.1074,5.1224,5.125,5.1299,5.1263,5.1325,5.1389,5.1388,5.1669,5.161,5.1646,5.1721,5.2,5.2011,5.202,5.2046,5.2063,5.2077,0,0,0,0,0,0,5.07,5.0838,5.0845,5.1013,5.1107,5.1226,5.1306,5.1315,5.1418,5.1412,5.1464,5.1491,5.1639,5.1695,5.1627,5.1879,5.183,5.1848,5.1837,5.1855,5.1867,5.185,5.1603,0,0,0,0,0,5.0721,5.0834,5.0947,5.1085,5.1132,5.1211,5.1278,5.1307,5.1405,5.1443,5.1518,5.161,5.172,5.179,5.1896,5.206,5.2085,5.2129,5.2142,5.2152,5.2166,5.2256,5.2276,5.2059,5.2059,5.2058,0,0,5.0764,5.0854,5.0921,5.1088,5.1164,5.1277,5.1244,5.1364,5.1448,5.1461,5.1608,5.1666,5.1772,5.193,5.2003,5.1981,5.2232,5.2165,5.2172,5.2181,5.2268,5.2289,5.2307,5.2066,5.2064,5.2063,0,0,5.0901,5.0981,5.1104,5.1182,5.1298,5.135,5.138,5.1498,5.1538,5.1687,5.1699,5.1797,5.1985,5.206,5.2122,5.2288,5.229,5.2321,5.2387,5.2474,5.2491,5.2506,5.2564,5.2584,5.2335,5.2335,5.2335,0,5.0938,5.1112,5.1165,5.1287,5.1358,5.1379,5.1503,5.1574,5.1718,5.1766,5.174,5.1976,5.2049,5.2224,5.2265,5.2315,5.2348,5.2306,5.2485,5.2501,5.2516,5.2571,5.2593,5.2338,5.2337,5.2337,5.2337,0,5.1152,5.1272,5.1357,5.1499,5.1581,5.1702,5.1771,5.1847,5.1869,5.1923,5.2073,5.2162,5.2286,5.233,5.2352,5.2508,5.2491,5.2475,5.2426,5.2539,5.2592,5.2613,5.2342,5.2341,5.234,5.2339,0,0,5.1295,5.1467,5.1497,5.1562,5.1692,5.1785,5.1906,5.2031,5.2094,5.2192,5.2294,5.2453,5.2439,5.251,5.254,5.2616,5.274,5.2591,5.2594,5.2614,5.2916,5.2927,5.2951,5.2743,5.2747,5.2751,5.2907,0,5.1445,5.1666,5.1717,5.1905,5.2015,5.2036,5.2142,5.2232,5.2285,5.2384,5.2441,5.2553,5.2527,5.257,5.2646,5.2709,5.2801,5.2698,5.2835,5.2839,5.2807,5.2979,5.299,5.3133,5.2928,5.2931,5.2934,0,5.1649,5.1755,5.1955,5.2072,5.212,5.2215,5.2333,5.2428,5.2529,5.2563,5.2643,5.2666,5.279,5.2737,5.2907,5.2836,5.2895,5.2934,5.2941,5.2954,5.2892,5.2995,5.318,5.3201,5.2967,5.2965,5.2962,0,5.1731,5.1925,5.207,5.2124,5.2264,5.233,5.239,5.2489,5.256,5.2662,5.2709,5.2823,5.2885,5.2972,5.3023,5.298,5.3189,5.314,5.3218,5.3216,5.326,5.3256,5.3456,5.33,5.3299,5.3299,5.3298,0,5.1892,5.2013,5.2109,5.2197,5.2333,5.239,5.2521,5.2581,5.2669,5.2767,5.2792,5.2883,5.2946,5.3046,5.3087,5.3221,5.3248,5.3277,5.3286,5.3274,5.327,5.3312,5.3303,5.3305,5.3303,5.3302,5.3301,0,5.2007,5.2076,5.2235,5.2356,5.2389,5.2483,5.2584,5.267,5.2724,5.2848,5.288,5.2965,5.3083,5.3144,5.329,5.3318,5.3468,5.3472,5.3435,5.3439,5.3512,5.3504,5.3745,5.3778,5.3601,5.3603,5.3604,0,5.2104,5.2198,5.233,5.24,5.2463,5.2574,5.2648,5.2707,5.2782,5.2906,5.2976,5.3096,5.3195,5.3383,5.3455,5.3567,5.3572,5.3649,5.3589,5.3574,5.3572,5.3565,5.3574,5.3659,5.366,5.3662,5.3663,0,5.2269,5.2299,5.2407,5.2528,5.2616,5.2713,5.2807,5.2862,5.2936,5.3019,5.3142,5.322,5.3371,5.3489,5.3607,5.3665,5.3676,5.3682,5.3705,5.3694,5.3668,5.3682,5.3463,5.3675,5.3674,5.3673,5.3673,5.3672,5.2378,5.2462,5.2568,5.2687,5.2766,5.2854,5.2941,5.3007,5.3112,5.3242,5.327,5.34,5.3497,5.3657,5.372,5.382,5.3803,5.3838,5.3846,5.3854,5.3857,5.3653,5.3841,5.3841,5.3841,5.3841,5.384,0,5.2543,5.2613,5.2722,5.2856,5.2949,5.2955,5.306,5.3137,5.3252,5.3344,5.3443,5.3583,5.3698,5.378,5.3897,5.3961,5.3969,5.3989,5.3984,5.3997,5.3865,5.3833,5.3981,5.3981,5.3981,5.3981,5.3981,5.3981,5.264,5.2783,5.2826,5.3007,5.3076,5.3206,5.3265,5.3346,5.342,5.3578,5.3675,5.3729,5.3816,5.394,5.4044,5.4065,5.4106,5.4127,5.4147,5.4022,5.4007,5.3992,5.3962,5.4135,5.4136,5.4271,5.4272,5.4273]}]]